Temperature
16 16 17 17 13 11 13 13 14 15 15 15 15 15 13 13 14 13 12 12 12 12 12 12 12 12 12 12 12 12 13 13 13 13 13 13 13 13 14 14 14 14 14 14 14 14 14 14 14
16 16 17 16 12 12 13 13 14 15 15 15 15 14 12 12 12 12 11 11 11 12 11 12 12 12 12 12 12 12 12 12 13 13 13 13 13 13 13 13 13 13 14 14 14 14 14 14 14
16 16 16 11 11 12 14 14 14 14 16 15 14 13 12 12 12 12 12 11 11 11 11 11 11 12 12 12 12 12 12 12 12 12 12 12 12 13 13 13 13 13 13 13 14 14 14 14 13
16 16 15 11 12 12 13 14 13 14 15 15 13 11 11 12 12 12 12 11 11 11 11 11 11 11 11 11 11 12 12 12 12 12 12 12 12 12 12 13 13 13 13 13 13 13 13 13 13
16 15 11 11 12 12 12 14 14 13 14 14 13 10 10 11 11 11 11 11 11 11 11 11 11 11 11 11 11 11 11 11 11 11 11 12 12 12 12 12 12 12 12 12 13 13 13 13 13
15 11 10 11 12 12 13 14 14 13 13 13 12 10 10 10 11 11 11 11 11 11 11 10 10 10 11 11 11 11 11 11 11 11 11 11 11 11 11 12 12 12 12 12 12 12 13 13 13
13 9 10 11 12 12 13 14 13 12 12 13 13 10 9 10 10 10 10 10 10 10 10 10 10 10 10 10 10 10 10 10 10 10 11 11 11 11 11 11 11 11 11 12 12 12 12 12 12
14 9 11 11 12 12 13 14 13 13 12 13 13 10 9 10 10 10 10 10 9 9 10 10 10 10 10 10 10 10 10 10 10 10 10 10 10 11 11 11 11 11 11 11 11 12 12 12 12
13 9 9 11 12 12 13 12 13 13 13 12 12 12 12 11 10 9 9 9 9 9 9 9 9 9 9 9 9 10 10 10 10 10 10 10 10 10 10 10 10 10 11 11 11 11 11 11 11
12 8 10 11 12 11 12 12 12 12 11 10 11 11 11 10 10 10 9 9 9 9 9 9 9 9 9 9 9 9 10 10 10 10 10 10 10 10 10 10 10 10 10 10 10 11 11 11 11
9 8 9 11 12 12 11 11 12 11 10 10 11 11 11 10 9 9 9 9 9 8 8 8 8 8 8 9 9 9 9 9 9 9 9 9 9 9 9 9 10 10 10 10 10 10 10 10 10
9 9 10 11 11 11 11 11 10 10 11 12 12 11 11 10 9 9 9 9 8 8 8 8 8 8 8 8 8 8 9 9 9 9 9 9 9 9 9 9 9 9 9 9 9 9 10 10 10
8 9 10 10 11 10 10 10 10 9 10 11 11 10 10 10 9 9 8 8 8 8 7 7 7 7 7 7 8 8 8 8 8 8 8 8 8 8 8 8 8 8 8 8 9 9 9 9 9
9 9 9 10 10 10 9 9 8 9 10 10 9 9 9 9 9 8 8 7 7 7 7 7 7 7 7 7 7 7 7 8 8 8 8 8 8 8 8 8 8 8 8 8 8 8 8 9 9
9 8 8 8 9 9 9 8 7 8 9 8 8 8 8 8 8 8 7 7 7 7 7 6 6 6 6 6 6 7 7 7 7 7 7 7 7 7 7 7 7 7 7 7 7 7 7 8 8
8 7 7 8 8 8 8 7 7 8 8 6 7 7 7 7 7 7 7 7 7 6 6 6 6 6 6 6 6 6 6 6 6 6 6 6 6 6 7 7 7 6 6 6 6 7 7 7 7
6 6 7 7 7 7 7 6 6 7 6 5 5 6 6 6 6 6 6 6 6 6 6 5 5 5 5 5 5 5 5 6 6 6 6 6 6 6 6 6 6 6 6 6 6 6 6 7 7
6 6 6 7 7 6 5 4 5 5 5 4 5 5 5 5 5 5 5 5 5 5 5 5 5 5 5 5 5 5 5 5 5 5 5 5 5 5 5 5 5 5 5 5 5 5 5 6 6
6 6 6 6 6 6 4 4 4 4 4 3 4 4 4 4 4 5 4 5 5 4 4 4 4 4 4 4 4 4 4 4 4 4 5 5 5 5 5 5 5 5 5 5 5 5 5 5 5
6 5 5 5 5 5 4 3 3 3 3 3 3 3 3 3 3 3 4 4 4 4 4 4 4 4 4 4 4 4 4 4 4 4 4 4 4 4 4 4 4 4 4 4 4 4 4 4 4
5 4 4 4 4 4 3 3 3 3 3 3 2 2 3 3 3 3 3 3 3 3 3 3 3 3 3 3 3 3 3 3 3 3 3 3 3 4 4 4 4 4 4 4 4 4 4 4 4
4 4 4 4 3 2 3 2 2 2 1 1 1 1 1 1 2 2 2 2 2 2 3 3 3 3 3 2 2 2 2 2 3 3 3 3 3 3 3 3 3 3 3 3 3 3 3 3 3
3 4 3 3 2 2 2 2 1 1 1 0 -0 0 0 0 1 1 1 1 2 2 2 2 2 2 2 2 2 2 2 2 2 2 2 2 2 2 2 2 3 2 2 2 2 3 3 3 3
3 2 2 1 1 2 1 1 1 -0 0 0 -1 -1 -0 -0 -0 0 0 1 1 1 1 1 1 1 1 1 1 1 1 1 1 1 1 1 2 2 2 2 2 2 2 2 2 2 2 2 2
2 2 1 1 1 1 1 1 0 -1 -1 -1 -1 -1 -1 -1 -1 -1 -0 -0 0 0 0 0 0 0 0 0 0 0 0 0 0 1 1 1 1 1 1 1 1 1 1 1 1 2 2 2 2
1 2 2 2 1 1 1 -0 -1 -1 -2 -1 -1 -1 -2 -2 -2 -2 -1 -1 -1 -1 -1 -1 -1 -0 -0 -1 -0 -1 -1 -0 -0 -0 0 0 0 0 1 1 1 1 1 1 1 1 1 1 1
1 0 1 0 -0 -1 -0 -1 -1 -2 -2 -2 -2 -2 -2 -2 -2 -2 -2 -2 -2 -2 -1 -1 -1 -1 -1 -1 -1 -1 -1 -1 -1 -1 -1 -1 -0 -0 -0 -0 0 0 0 0 0 0 0 0 1
1 -0 -1 -1 -0 -0 -0 -2 -1 -2 -2 -3 -3 -3 -3 -3 -3 -3 -3 -2 -2 -2 -2 -2 -2 -2 -2 -2 -2 -2 -2 -2 -2 -2 -1 -1 -1 -1 -1 -1 -1 -1 -0 -0 -0 -0 -0 -0 0
-0 -0 -1 -1 -1 -1 -1 -1 -2 -2 -3 -3 -4 -3 -3 -3 -3 -3 -3 -3 -3 -3 -3 -3 -3 -2 -2 -2 -2 -2 -2 -2 -2 -2 -2 -2 -2 -2 -2 -2 -1 -1 -1 -1 -1 -1 -1 -1 -0
-1 -1 -1 -1 -2 -2 -2 -2 -3 -3 -3 -4 -4 -4 -4 -4 -4 -4 -4 -4 -3 -3 -3 -3 -3 -3 -3 -3 -3 -3 -3 -3 -3 -3 -3 -3 -2 -2 -2 -2 -2 -2 -2 -1 -1 -1 -1 -1 -1
Wind_Speed
8 6 3 4 6 5 2 4 3 1 0 0 3 7 8 6 3 5 3 4 6 5 5 6 7 8 9 9 10 10 10 11 11 11 11 11 11 11 12 12 12 11 11 11 11 12 12 11 11
4 2 5 5 5 2 5 5 4 4 4 4 4 6 6 4 3 6 4 5 7 7 6 6 7 9 10 10 10 10 10 10 11 11 11 11 11 11 11 11 11 11 11 11 11 11 11 11 10
3 3 5 5 4 6 6 4 5 2 2 3 4 5 5 4 4 5 4 7 8 7 7 7 9 10 10 10 10 10 10 10 10 11 11 11 11 10 10 10 10 11 10 10 10 10 10 10 10
3 5 5 4 4 5 5 4 3 3 2 3 5 5 3 1 4 5 7 8 8 6 7 7 10 10 10 10 10 10 9 9 10 10 10 10 10 10 9 9 10 10 10 9 9 9 9 9 9
4 5 4 1 4 4 3 3 3 3 2 1 5 6 2 3 4 8 8 8 8 5 7 7 9 10 10 10 10 10 9 9 9 9 9 9 9 9 9 9 9 9 8 8 8 8 8 8 9
4 5 4 4 5 3 3 2 3 2 2 2 5 6 3 1 6 8 8 7 7 6 6 7 8 9 9 9 10 9 9 9 9 9 9 9 9 9 8 9 8 8 8 8 8 7 7 8 8
5 5 4 5 4 4 4 2 4 4 3 4 6 7 3 3 5 7 7 7 7 7 6 6 8 8 8 9 9 9 9 8 8 8 8 8 9 8 8 8 8 7 7 7 7 7 6 7 7
5 5 3 3 4 5 2 1 1 3 3 1 4 8 6 7 7 7 7 7 6 5 5 5 7 7 7 8 8 9 9 8 8 8 8 8 8 7 7 7 7 7 6 6 6 6 6 6 7
4 4 4 5 6 4 1 1 1 1 4 2 1 3 5 11 9 9 6 5 5 4 3 4 5 6 6 7 7 7 8 8 8 7 7 8 7 7 6 6 6 6 6 6 6 6 6 6 7
4 4 6 4 3 3 1 2 2 2 2 1 2 3 7 10 10 10 8 7 5 4 2 3 4 4 5 5 6 6 6 7 7 7 7 6 6 6 6 6 6 6 6 5 5 6 6 6 6
4 5 4 2 1 1 1 1 1 4 3 5 6 8 10 10 9 9 8 7 6 5 3 2 3 4 4 4 5 5 5 5 6 6 6 6 6 5 6 6 6 6 6 6 5 6 6 5 5
3 2 3 2 1 0 2 2 1 3 5 3 6 10 12 12 10 10 9 7 6 5 4 3 2 3 4 4 4 4 4 4 4 4 4 5 4 4 4 4 4 5 5 5 5 5 5 5 4
2 2 2 2 1 1 1 2 2 3 3 2 6 8 10 10 9 7 6 6 6 5 4 3 3 3 3 4 3 3 3 3 2 3 3 4 3 2 3 2 3 4 4 3 3 4 4 4 4
3 2 2 3 2 1 1 3 1 4 1 4 5 6 7 7 7 6 6 6 6 6 5 4 4 3 4 3 2 2 2 2 2 2 2 3 3 2 2 2 2 3 3 2 3 3 3 2 3
1 1 3 3 3 2 1 4 4 4 2 3 3 4 4 4 4 5 6 6 6 6 6 5 4 4 3 3 3 3 2 2 2 2 2 3 3 2 2 1 1 1 2 2 3 3 3 2 2
2 1 3 4 3 2 4 7 4 2 4 2 2 2 3 3 3 3 4 4 4 5 5 4 4 4 3 2 2 2 2 1 1 1 2 2 2 1 1 1 0 0 1 2 2 1 1 1 1
2 2 4 4 3 2 4 6 4 1 3 2 2 2 3 2 1 1 2 3 4 4 5 4 4 4 3 2 2 2 1 1 1 1 1 1 1 1 1 1 0 0 2 2 1 0 0 0 1
4 3 4 5 3 3 5 7 5 2 1 2 2 2 2 2 2 2 2 2 3 3 4 4 4 3 3 2 2 1 1 1 1 0 1 1 1 1 1 1 1 1 1 0 0 0 0 1 0
4 4 6 6 2 3 6 8 7 4 2 3 3 2 2 2 0 1 2 2 3 2 2 3 3 3 3 2 2 1 1 1 1 0 0 0 0 1 1 1 1 0 1 1 1 1 0 0 0
3 5 6 5 3 3 4 6 5 3 3 3 3 3 1 1 3 2 2 2 2 2 2 3 3 3 3 2 2 2 2 1 1 1 1 1 0 0 1 1 0 1 1 1 1 2 1 1 1
4 6 6 5 5 3 2 5 4 2 1 2 1 0 0 1 1 1 1 1 1 2 2 2 3 3 2 2 1 1 1 0 0 1 1 1 1 1 1 1 1 1 1 2 2 2 2 2 2
6 4 4 4 2 4 2 5 4 2 2 3 3 3 2 2 1 1 1 1 1 2 2 2 2 2 2 2 3 3 2 2 2 2 2 2 2 2 2 2 2 1 1 2 3 2 2 3 3
5 2 2 3 3 3 2 4 6 1 2 3 2 2 3 3 2 2 2 2 2 1 1 2 2 2 1 2 3 3 3 2 1 1 2 2 2 2 3 3 3 2 2 2 3 2 2 2 3
0 2 3 2 2 5 6 6 5 3 4 2 1 2 3 4 4 3 4 3 2 1 1 1 1 1 1 1 2 3 3 3 2 2 3 3 2 2 3 3 3 3 2 3 3 3 3 3 3
3 3 3 4 2 7 3 4 5 3 1 2 1 1 3 3 4 4 5 5 4 2 1 1 1 1 1 1 2 3 4 4 4 4 4 3 3 3 3 3 3 3 3 4 3 3 3 3 3
2 4 4 4 5 5 2 5 3 1 2 2 2 1 3 3 4 4 4 4 4 4 2 2 2 2 2 2 3 3 3 3 3 4 4 4 4 4 4 4 4 4 5 4 3 3 4 3 4
2 3 3 3 1 3 4 3 3 2 3 2 2 3 3 3 4 4 4 4 4 4 4 3 2 2 2 2 3 3 3 3 4 4 4 4 4 4 4 4 4 4 5 5 4 4 4 4 4
2 4 3 3 2 5 5 4 3 2 2 2 3 3 4 3 4 4 4 5 5 4 5 4 2 3 3 3 3 3 3 3 3 3 4 4 4 4 4 4 4 5 5 5 4 4 4 5 5
2 2 3 3 3 3 4 5 2 3 2 1 2 3 4 4 4 3 4 4 5 5 5 4 3 3 3 3 3 3 3 3 3 4 4 5 4 4 5 5 5 5 5 5 5 5 5 6 5
3 4 5 4 5 4 4 5 1 1 1 0 2 3 4 4 4 4 4 4 5 5 5 5 4 4 4 4 4 4 4 4 4 4 5 4 5 5 5 5 6 6 5 5 6 6 6 6 7
Wind_Direction
336 346 66 60 60 60 224 244 215 199 161 95 94 102 108 107 126 149 159 132 119 116 113 110 99 101 104 99 94 91 88 85 82 81 79 78 76 75 72 70 70 68 70 72 73 75 72 74 78
345 24 58 64 100 152 253 241 213 210 177 145 91 89 89 88 88 116 132 138 120 115 107 106 101 101 104 100 96 92 87 84 82 80 79 79 78 75 72 70 70 67 64 67 70 74 73 70 74
343 60 84 86 137 184 215 221 206 188 128 138 88 64 103 131 134 146 159 138 112 105 106 109 104 102 102 103 97 96 91 86 85 82 79 77 76 75 73 69 69 68 64 64 68 72 73 69 69
62 53 61 93 200 222 209 214 171 140 72 75 112 88 67 47 157 152 135 122 111 102 105 110 105 103 101 99 100 94 95 91 87 84 81 77 74 72 69 68 69 68 65 64 66 69 71 71 68
60 82 88 145 228 246 239 231 174 156 167 113 118 122 109 353 107 122 126 121 120 108 108 110 107 105 101 96 96 95 91 92 88 83 82 79 75 70 67 69 70 68 67 64 65 67 68 68 67
61 77 119 204 229 249 257 213 159 152 181 155 123 127 148 147 125 126 121 116 115 112 107 112 109 106 102 98 94 88 86 86 87 84 79 78 75 70 68 68 68 67 64 63 61 63 63 64 66
112 115 171 192 206 237 236 192 162 166 180 194 145 132 152 185 152 129 117 109 103 101 94 90 99 105 102 96 90 85 81 82 86 83 78 75 74 71 68 66 63 65 65 63 60 57 58 62 60
127 121 170 199 198 231 231 142 148 164 185 146 126 148 182 189 156 121 108 104 101 89 81 83 89 93 95 95 92 86 82 75 78 82 77 71 70 71 69 64 60 59 62 64 63 57 49 57 57
99 97 196 206 198 221 220 126 0 63 112 73 67 166 171 147 137 121 110 100 106 104 90 87 91 91 94 96 92 87 83 74 70 74 73 65 63 67 68 65 61 58 57 58 59 55 48 49 54
99 168 210 217 198 196 210 168 178 104 104 99 62 75 124 138 140 141 144 148 146 144 137 109 101 96 95 94 85 79 78 73 68 68 66 62 63 63 61 61 57 52 46 45 46 48 47 43 44
147 184 203 252 267 193 186 212 175 147 212 214 192 167 150 147 151 156 160 161 163 157 143 128 118 107 99 94 90 78 70 69 70 71 69 68 60 59 55 51 47 42 39 37 34 43 43 43 43
157 225 202 248 293 152 183 187 226 204 233 230 180 161 157 160 167 171 171 169 160 152 151 137 115 111 106 104 96 89 75 66 67 71 77 75 68 60 55 52 41 40 39 39 40 42 41 42 45
204 235 246 251 285 224 174 216 231 259 266 95 118 141 159 166 173 175 169 161 155 156 155 157 131 125 119 105 99 91 81 80 76 73 70 79 86 82 70 62 48 33 37 47 47 46 45 44 44
203 221 264 271 268 253 224 268 223 263 198 105 122 148 166 174 176 168 166 169 169 166 167 165 149 132 122 112 102 100 81 75 91 81 73 82 82 91 91 80 61 34 29 42 56 62 57 49 56
104 1 311 266 217 216 141 285 236 250 132 120 145 159 162 177 166 175 181 176 172 167 162 163 153 131 130 125 111 101 98 91 100 95 89 84 79 84 95 92 78 36 24 41 59 65 62 57 45
54 52 283 275 195 182 154 256 281 260 150 171 185 183 175 190 179 177 166 162 157 154 154 158 144 136 133 126 107 104 98 99 103 99 101 85 72 69 80 97 39 17 81 81 80 83 40 18 11
24 259 254 282 213 173 190 248 285 304 146 202 227 212 200 192 193 176 151 152 154 153 151 151 139 144 144 120 95 91 94 87 122 123 129 119 91 60 54 96 60 84 107 103 93 69 128 75 14
236 243 257 254 251 189 221 251 287 302 170 233 248 236 213 205 217 181 148 137 136 138 141 142 136 132 123 102 83 86 79 32 43 108 173 148 108 88 65 68 46 101 129 136 129 156 46 180 188
200 221 254 263 267 230 241 260 277 276 274 271 275 257 232 242 267 87 98 108 103 106 134 146 141 144 137 143 153 167 205 228 281 292 284 174 125 111 97 69 27 43 218 206 185 180 143 258 115
236 249 264 286 304 253 264 274 281 271 251 250 248 248 237 356 30 51 60 94 126 153 167 168 165 168 173 179 182 190 196 220 247 291 330 261 230 194 164 114 272 280 240 210 200 176 204 241 186
239 227 246 269 318 314 305 296 277 306 337 347 360 323 124 144 124 60 50 162 170 176 189 188 188 180 186 180 162 136 102 49 340 291 277 279 254 236 211 207 217 236 223 214 215 203 190 208 239
250 241 248 260 288 274 217 273 270 266 337 2 357 6 2 7 29 25 354 297 242 228 209 197 187 183 185 178 178 176 191 220 244 235 253 289 269 243 215 210 218 227 226 229 224 219 222 200 219
237 269 253 242 217 274 247 226 274 285 289 304 324 352 7 9 9 344 318 276 266 256 239 211 195 182 189 192 193 198 223 236 260 250 253 262 276 247 225 214 210 224 233 234 233 229 218 216 220
243 29 24 44 104 259 226 203 266 244 229 250 318 354 359 358 357 359 359 355 339 335 343 310 221 231 215 206 206 208 224 235 233 245 242 253 260 262 241 226 215 225 234 236 234 228 219 223 227
59 74 10 340 295 250 207 197 249 267 246 200 228 344 348 354 358 359 358 359 352 342 334 326 295 274 264 249 234 229 226 223 223 232 232 244 258 265 245 244 226 232 236 237 234 237 231 226 228
206 156 174 226 244 279 262 221 245 332 36 59 77 49 4 357 350 345 342 345 348 340 320 297 285 276 268 255 256 249 241 233 236 238 241 240 247 252 251 240 234 234 233 237 237 245 245 240 234
161 199 179 160 253 271 258 273 289 59 30 38 35 16 354 342 339 336 340 345 342 338 320 296 279 283 279 275 281 270 254 250 247 244 246 247 255 263 257 250 244 238 234 233 235 242 238 241 241
157 155 113 148 220 262 273 255 245 246 282 331 341 332 326 334 339 340 342 340 336 333 328 313 303 284 283 282 278 288 272 259 255 248 249 254 257 260 259 256 249 246 240 236 235 239 237 235 244
159 165 166 175 189 205 267 267 224 195 199 253 302 323 329 332 327 325 329 333 335 337 338 328 317 305 296 291 287 283 277 273 269 259 255 256 256 255 252 255 251 246 243 241 237 237 235 233 239
190 191 163 183 238 214 230 260 288 162 166 258 308 324 334 329 323 323 324 333 338 337 337 331 314 299 290 283 282 281 278 278 269 267 265 261 259 259 257 256 251 250 248 245 240 239 238 232 234
Height
1506 1507 1508 1511 1515 1527 1528 1521 1514 1513 1512 1512 1511 1511 1513 1517 1521 1527 1525 1524 1526 1528 1529 1531 1532 1533 1534 1534 1535 1535 1535 1535 1536 1536 1536 1537 1537 1537 1537 1538 1538 1538 1539 1540 1540 1540 1540 1541 1541
1505 1507 1510 1510 1521 1532 1528 1517 1514 1511 1510 1511 1511 1512 1513 1517 1519 1521 1522 1524 1526 1527 1529 1530 1531 1532 1533 1534 1534 1535 1535 1535 1536 1536 1536 1536 1537 1537 1538 1538 1538 1539 1539 1540 1540 1540 1541 1541 1542
1505 1506 1509 1513 1523 1527 1520 1513 1511 1509 1509 1510 1511 1513 1515 1517 1518 1519 1521 1523 1525 1527 1528 1529 1530 1531 1532 1533 1533 1534 1535 1535 1535 1535 1536 1536 1536 1537 1537 1538 1538 1538 1539 1540 1540 1541 1541 1541 1542
1505 1507 1510 1518 1521 1517 1512 1509 1508 1509 1509 1510 1511 1514 1516 1518 1519 1519 1521 1523 1524 1526 1528 1529 1530 1530 1531 1532 1533 1533 1534 1535 1535 1535 1535 1535 1536 1536 1537 1537 1537 1538 1538 1539 1540 1540 1541 1542 1542
1504 1506 1514 1521 1518 1513 1509 1508 1508 1508 1509 1510 1510 1513 1516 1518 1518 1519 1520 1522 1524 1525 1527 1528 1529 1529 1530 1531 1532 1532 1533 1533 1534 1534 1534 1534 1535 1535 1536 1536 1536 1537 1538 1538 1539 1540 1541 1541 1542
1505 1506 1520 1523 1517 1511 1508 1507 1508 1509 1509 1510 1510 1513 1516 1517 1518 1519 1520 1522 1523 1524 1526 1527 1528 1529 1529 1530 1530 1531 1532 1532 1533 1533 1533 1533 1534 1534 1534 1535 1535 1536 1537 1537 1538 1539 1540 1540 1541
1505 1510 1517 1516 1515 1512 1507 1506 1507 1508 1508 1509 1509 1512 1514 1516 1517 1518 1520 1521 1523 1524 1525 1526 1527 1528 1528 1529 1529 1530 1530 1531 1532 1532 1533 1532 1532 1533 1533 1534 1534 1535 1535 1536 1537 1537 1538 1539 1540
1503 1509 1513 1515 1512 1510 1505 1505 1506 1506 1507 1508 1508 1509 1511 1514 1516 1518 1519 1521 1522 1523 1524 1525 1525 1526 1527 1527 1528 1528 1529 1529 1530 1531 1531 1531 1531 1532 1532 1532 1533 1533 1534 1535 1535 1536 1537 1538 1539
1503 1512 1515 1511 1509 1506 1504 1504 1505 1505 1506 1507 1507 1507 1508 1511 1514 1516 1517 1519 1520 1521 1522 1523 1524 1524 1525 1526 1526 1527 1527 1528 1528 1529 1529 1530 1530 1530 1530 1531 1531 1532 1532 1533 1534 1534 1535 1536 1537
1502 1512 1509 1505 1504 1504 1503 1503 1504 1505 1505 1506 1506 1506 1508 1509 1511 1513 1514 1515 1517 1519 1520 1521 1522 1523 1523 1524 1524 1525 1525 1525 1526 1527 1527 1528 1528 1528 1529 1529 1530 1530 1531 1531 1532 1533 1534 1534 1535
1502 1507 1504 1503 1502 1503 1503 1503 1503 1504 1505 1503 1503 1504 1506 1508 1509 1510 1512 1513 1515 1516 1518 1519 1520 1521 1521 1522 1522 1523 1523 1523 1524 1524 1525 1525 1526 1526 1527 1527 1527 1528 1529 1529 1530 1531 1532 1533 1534
1502 1502 1502 1502 1502 1502 1503 1503 1503 1502 1502 1502 1502 1503 1504 1505 1506 1508 1510 1511 1513 1514 1516 1517 1518 1519 1519 1520 1520 1520 1521 1521 1521 1522 1522 1523 1523 1524 1524 1525 1525 1526 1526 1527 1528 1529 1530 1531 1532
1502 1501 1501 1501 1501 1502 1502 1502 1502 1501 1501 1501 1501 1502 1502 1503 1505 1506 1508 1510 1511 1512 1513 1515 1516 1516 1517 1518 1518 1518 1518 1519 1519 1519 1520 1520 1521 1521 1522 1522 1523 1524 1524 1525 1526 1527 1528 1529 1530
1500 1501 1501 1501 1501 1501 1502 1501 1502 1499 1500 1500 1500 1501 1502 1502 1503 1505 1506 1507 1509 1510 1511 1512 1513 1514 1515 1515 1516 1516 1516 1516 1516 1516 1517 1518 1518 1519 1519 1520 1520 1521 1522 1523 1524 1524 1525 1526 1527
1500 1502 1501 1500 1500 1500 1501 1502 1500 1498 1499 1498 1499 1499 1500 1501 1502 1502 1503 1505 1506 1507 1509 1510 1511 1512 1512 1513 1513 1513 1513 1513 1513 1514 1514 1515 1515 1516 1516 1517 1517 1518 1519 1520 1521 1522 1523 1524 1525
1501 1504 1505 1500 1499 1499 1504 1502 1498 1498 1497 1497 1497 1498 1498 1499 1499 1500 1501 1503 1504 1505 1506 1507 1508 1509 1510 1510 1510 1511 1511 1511 1511 1511 1512 1512 1512 1513 1513 1514 1514 1515 1516 1517 1517 1519 1519 1521 1522
1506 1509 1506 1501 1498 1499 1501 1501 1498 1497 1496 1496 1496 1496 1496 1496 1497 1498 1499 1500 1502 1503 1503 1504 1505 1506 1507 1507 1507 1508 1509 1509 1508 1508 1509 1509 1509 1510 1510 1511 1511 1512 1513 1514 1514 1516 1517 1518 1519
1509 1509 1505 1502 1498 1499 1501 1500 1497 1496 1495 1494 1494 1494 1494 1494 1495 1496 1497 1498 1499 1500 1501 1501 1502 1503 1504 1504 1505 1506 1506 1506 1505 1505 1506 1506 1506 1507 1507 1508 1508 1509 1510 1510 1511 1513 1514 1515 1516
1503 1504 1504 1501 1498 1499 1500 1498 1496 1494 1494 1493 1493 1493 1493 1493 1494 1495 1495 1496 1496 1497 1498 1498 1499 1500 1501 1502 1502 1502 1502 1502 1502 1502 1502 1503 1503 1504 1504 1505 1505 1506 1506 1507 1508 1509 1510 1512 1513
1502 1504 1504 1501 1498 1499 1499 1498 1495 1493 1492 1492 1491 1491 1491 1491 1491 1492 1493 1493 1493 1494 1495 1496 1496 1497 1498 1498 1499 1499 1499 1499 1499 1499 1499 1500 1500 1501 1501 1501 1502 1503 1503 1504 1505 1506 1507 1508 1510
1502 1504 1503 1502 1500 1498 1500 1498 1495 1492 1491 1491 1490 1489 1489 1489 1489 1490 1490 1490 1490 1491 1491 1492 1493 1494 1494 1495 1496 1496 1496 1496 1496 1496 1496 1496 1497 1497 1498 1498 1499 1499 1500 1501 1502 1503 1504 1505 1506
1502 1500 1500 1501 1505 1505 1502 1505 1496 1493 1492 1491 1490 1489 1488 1488 1488 1488 1488 1487 1487 1488 1489 1489 1490 1491 1491 1492 1492 1492 1491 1491 1492 1492 1492 1493 1493 1494 1494 1495 1495 1496 1496 1497 1498 1499 1501 1502 1503
1501 1499 1500 1501 1504 1507 1504 1506 1497 1494 1493 1492 1490 1489 1488 1488 1487 1487 1486 1485 1485 1485 1486 1486 1486 1487 1487 1487 1488 1488 1488 1488 1489 1489 1489 1490 1490 1490 1490 1491 1491 1492 1493 1493 1494 1495 1497 1498 1499
1499 1501 1502 1505 1508 1507 1501 1504 1497 1496 1491 1491 1490 1489 1488 1487 1486 1485 1485 1484 1484 1483 1483 1483 1483 1483 1483 1484 1484 1484 1484 1485 1485 1485 1485 1485 1485 1485 1486 1486 1487 1488 1488 1489 1490 1491 1492 1494 1495
1501 1506 1512 1512 1513 1504 1499 1500 1498 1493 1491 1490 1490 1489 1488 1487 1486 1484 1483 1482 1481 1481 1481 1481 1481 1480 1481 1481 1481 1481 1481 1481 1481 1481 1481 1481 1481 1481 1481 1482 1482 1483 1484 1485 1486 1487 1487 1489 1490
1502 1503 1509 1511 1510 1504 1499 1500 1496 1493 1491 1490 1490 1489 1488 1486 1485 1483 1482 1481 1480 1479 1479 1478 1478 1477 1477 1477 1477 1478 1478 1477 1477 1477 1477 1477 1477 1477 1478 1478 1478 1479 1480 1480 1481 1482 1483 1484 1486
1501 1505 1504 1510 1511 1511 1502 1502 1495 1492 1492 1491 1490 1488 1487 1486 1484 1483 1481 1480 1478 1477 1477 1476 1475 1475 1474 1474 1474 1474 1473 1473 1473 1473 1473 1473 1473 1473 1473 1474 1474 1475 1475 1476 1477 1477 1478 1480 1481
1499 1502 1508 1510 1510 1507 1500 1503 1497 1494 1492 1491 1490 1488 1487 1485 1483 1482 1480 1478 1477 1476 1474 1474 1473 1472 1471 1471 1470 1470 1469 1469 1469 1469 1468 1468 1468 1468 1469 1469 1470 1470 1471 1471 1472 1472 1474 1475 1476
1502 1503 1504 1507 1508 1508 1506 1500 1492 1491 1491 1491 1489 1488 1487 1485 1483 1481 1479 1477 1475 1474 1472 1471 1470 1469 1468 1468 1467 1466 1465 1465 1465 1464 1464 1464 1464 1464 1464 1464 1464 1465 1465 1466 1467 1467 1468 1469 1471
1498 1500 1503 1507 1507 1509 1509 1503 1491 1490 1489 1489 1489 1488 1486 1484 1482 1480 1477 1475 1473 1471 1469 1468 1467 1466 1465 1464 1463 1462 1461 1461 1460 1459 1459 1459 1459 1459 1459 1459 1459 1460 1460 1461 1461 1462 1463 1464 1465